IRAS DEB

Satellite information

Favourite Embed

Satellite Type and Status

DEBRISIN ORBIT

Key statistics

Satellite IRAS DEB at a glance.

Uptime

15503

Days in orbit

Revolutions

≈ 14.0

Per day

Orbit

SSO

Sun Synchronous Orbit

Inclination

99.0

Latest

Satellite identification and parameters

Extended collection of information and parameters for IRAS DEB.

Object identification

Identified? True

Debris? True

Object name: IRAS DEB

International designator: 1983-004C

Object number (NORAD): 13783

Object ID (CCSDS): 13783

Country: UNITED STATES OF AMERICA (US)

Current information (Y/N): Y

RCS size: MEDIUM

Orbital parameters

Period: 102.491 minutes

Inclination: 98.9741 deg

SMA: 7254.682 km

Apoapsis: 888.343 km

Periapsis: 864.751 km

RAAN: 10.546 deg

Eccentricy: 0.001626

Argument of periapsis: 185.0659 deg

Mean anomaly: 229.6947 deg

Mean motion: 14.0499628 rev/day

Mean motion (dot): -0.00000091 rev/day2

B* drag term: -0.000029265 1/REarth

Two-line elements (TLE)

Creation date: July 6, 2025, 6:05 p.m.

Reference frame: TEME

Reference center: EARTH

Epoch: July 6, 2025, 11:41 a.m. UTC

TLE line 0: 0 IRAS DEB

TLE line 1: 1 13783U 83004C 25187.48714534 -.00000091 00000-0 -29265-4 0 9996

TLE line 2: 2 13783 98.9741 10.5460 0016260 185.0659 229.6947 14.04996280171402

Live tracking on map

Real-time ground track for satellite IRAS DEB.

In-orbit conjunctions

A list of the most updated potential collisions computed for object IRAS DEB.

Target Orbit TCA Probability of collision Miss distance Type
FENGYUN 1C DEB SSO 2025-03-15 20:02:10 0.0001429667 336.0 (m) DEBRIS

Associated space launch

Astronomy satellite dedicated to infrared full-sky surveying

IRAS DEB was lifted into orbit during the mission ‘Delta 3910 | IRAS’, on board a Delta 3910 space rocket.

The launch took place on Jan. 26, 1983, 2:17 a.m. from Space Launch Complex 2W.

For more information about the launch, click the button.

Launch to space Delta 3910 | IRAS
Delta 3910 | IRAS

Agency: N/A

Status: Launch Successful

Launch date: Jan. 26, 1983, 2:17 a.m. UTC

Rocket: Delta 3910

Launch pad: Space Launch Complex 2W

Location: Vandenberg SFB, CA, USA

...

Latest news about this satellite

There are no fresh news available about this satellite. Check back as we update our databases every day.


Newsletter sign-up

Weekly statistics, charts and insights to help you stay on top of the space industry.